Phnom Penh, Cambodia

1:29 AM +07 on August 19, 2017 (GMT +0700)
Pochentong International

Weather History for VDPP - March, 2013

Change the Weather History Date:

Sunday, March 17, 2013

  Actual Average Record
Temperature  
Mean Temperature 86 °F -  
Max Temperature 95 °F 91 °F 96 °F (2014)
Min Temperature 78 °F 77 °F 75 °F (2004)
Cooling Degree Days 22    
Growing Degree Days 36 (Base 50)    
Moisture  
Dew Point 69 °F    
Average Humidity 54    
Maximum Humidity 78    
Minimum Humidity 38    
Precipitation  
Precipitation 0.00 in - - ()
Sea Level Pressure  
Sea Level Pressure 29.83 in    
Wind  
Wind Speed 7 mph ()    
Max Wind Speed 10 mph    
Max Gust Speed -    
Visibility 6.1 miles    
Events      
Averages and records for this station are not official NWS values.
T = Trace of Precipitation, MM = Missing Value Source: Averaged Metar Reports

Daily Weather History Graph

Daily Weather History Graph

Search for Another Location

Airport or City:

Trip Planner

Search our weather history database for the weather conditions in past years. The results will help you decide how hot, cold, wet, or windy it might be!

Date:

Astronomy

Mar. 17, 2013 Rise Set
Actual Time 6:06 AM +07 6:11 PM +07
Civil Twilight 5:45 AM +07 6:32 PM +07
Nautical Twilight 5:21 AM +07 6:56 PM +07
Astronomical Twilight 4:56 AM +07 7:21 PM +07
Moon 9:50 AM +07 (3/17) 10:47 PM +07 (3/17)
Length of Visible Light 12h 46m
Length of Day
12h 04m
Waxing Crescent, 27% of the Moon is Illuminated
Mar 17
Waxing Crescent
Mar 20
First Quarter
Mar 27
Full
Apr 3
Last Quarter
Apr 10
New

Hourly Weather History & Observations

Time (+07) Temp. Heat Index Dew Point Humidity Pressure Visibility Wind Dir Wind Speed Gust Speed Precip Events Conditions
12:00 AM 84.2 °F 89.6 °F 71.6 °F 66% 29.92 in 5.6 mi South 9.2 mph - N/A   Partly Cloudy
12:30 AM 84.2 °F 89.6 °F 71.6 °F 66% 29.89 in 5.6 mi South 9.2 mph - N/A   Partly Cloudy
1:00 AM 82.4 °F 87.2 °F 71.6 °F 70% 29.89 in 5.6 mi South 9.2 mph - N/A   Partly Cloudy
6:00 AM 78.8 °F - 71.6 °F 78% 29.89 in 5.6 mi SSW 6.9 mph - N/A   Scattered Clouds
7:00 AM 80.6 °F 84.6 °F 71.6 °F 74% 29.89 in 6.2 mi South 8.1 mph - N/A   Scattered Clouds
7:30 AM 82.4 °F 87.2 °F 71.6 °F 70% 29.92 in 6.2 mi SSW 6.9 mph - N/A   Scattered Clouds
8:00 AM 84.2 °F 89.6 °F 71.6 °F 66% 29.92 in 6.2 mi South 9.2 mph - N/A   Scattered Clouds
8:30 AM 84.2 °F 89.6 °F 71.6 °F 66% 29.92 in 6.2 mi South 6.9 mph - N/A   Scattered Clouds
9:00 AM 86.0 °F 90.4 °F 69.8 °F 58% 29.92 in 6.2 mi SSE 9.2 mph - N/A   Scattered Clouds
9:30 AM 86.0 °F 90.4 °F 69.8 °F 58% 29.92 in 6.2 mi South 9.2 mph - N/A   Scattered Clouds
10:00 AM 87.8 °F 92.6 °F 69.8 °F 55% 29.92 in 6.2 mi SSE 6.9 mph - N/A   Scattered Clouds
10:30 AM 89.6 °F 94.7 °F 69.8 °F 52% 29.89 in 6.2 mi South 8.1 mph - N/A   Scattered Clouds
11:00 AM 89.6 °F 93.4 °F 68.0 °F 49% 29.89 in 6.2 mi South 8.1 mph - N/A   Scattered Clouds
11:30 AM 91.4 °F 95.4 °F 68.0 °F 46% 29.86 in 6.2 mi South 6.9 mph - N/A   Scattered Clouds
12:00 PM 91.4 °F 95.4 °F 68.0 °F 46% 29.86 in 6.2 mi SSW 10.4 mph - N/A   Scattered Clouds
12:30 PM 91.4 °F 95.4 °F 68.0 °F 46% 29.86 in 6.2 mi South 9.2 mph - N/A   Scattered Clouds
1:00 PM 93.2 °F 97.7 °F 68.0 °F 44% 29.83 in 6.2 mi South 6.9 mph - N/A   Scattered Clouds
1:30 PM 95.0 °F 99.5 °F 68.0 °F 41% 29.80 in 6.2 mi South 6.9 mph - N/A   Scattered Clouds
2:00 PM 95.0 °F 99.5 °F 68.0 °F 41% 29.80 in 6.2 mi South 8.1 mph - N/A   Scattered Clouds
2:30 PM 95.0 °F 99.5 °F 68.0 °F 41% 29.77 in 6.2 mi SSE 9.2 mph - N/A   Scattered Clouds
3:00 PM 95.0 °F 98.5 °F 66.2 °F 39% 29.77 in 6.2 mi East 6.9 mph - N/A   Scattered Clouds
3:30 PM 95.0 °F 98.5 °F 66.2 °F 39% 29.74 in 6.2 mi SSE 10.4 mph - N/A   Scattered Clouds
4:00 PM 95.0 °F 99.5 °F 68.0 °F 41% 29.74 in 6.2 mi SSE 8.1 mph - N/A   Scattered Clouds
4:30 PM 95.0 °F 98.5 °F 66.2 °F 39% 29.74 in 6.2 mi SSE 6.9 mph - N/A   Scattered Clouds
5:00 PM 95.0 °F 98.5 °F 66.2 °F 39% 29.74 in - SSE 8.1 mph - N/A   Clear
5:30 PM 93.2 °F 94.9 °F 64.4 °F 38% 29.74 in 6.2 mi South 8.1 mph - N/A   Partly Cloudy
6:00 PM 91.4 °F 94.0 °F 66.2 °F 43% 29.74 in 6.2 mi SSE 5.8 mph - N/A   Partly Cloudy
6:30 PM 91.4 °F 95.4 °F 68.0 °F 46% 29.74 in 5.6 mi SE 5.8 mph - N/A   Partly Cloudy
7:00 PM 89.6 °F 93.4 °F 68.0 °F 49% 29.77 in 5.6 mi SSE 5.8 mph - N/A   Partly Cloudy
7:30 PM 89.6 °F 94.7 °F 69.8 °F 52% 29.77 in 5.6 mi SSE 5.8 mph - N/A   Partly Cloudy
8:00 PM 87.8 °F 92.6 °F 69.8 °F 55% 29.77 in 5.6 mi South 6.9 mph - N/A   Partly Cloudy
8:30 PM 87.8 °F 92.6 °F 69.8 °F 55% 29.77 in 6.2 mi South 6.9 mph - N/A   Partly Cloudy
9:00 PM 87.8 °F 93.8 °F 71.6 °F 58% 29.77 in 6.2 mi South 8.1 mph - N/A   Partly Cloudy
9:30 PM 86.0 °F 91.8 °F 71.6 °F 62% 29.80 in 6.2 mi SSW 8.1 mph - N/A   Partly Cloudy
10:00 PM 86.0 °F 91.8 °F 71.6 °F 62% 29.80 in 6.2 mi SSW 8.1 mph - N/A   Partly Cloudy
10:30 PM 84.2 °F 89.6 °F 71.6 °F 66% 29.80 in 6.2 mi SSW 8.1 mph - N/A   Partly Cloudy
11:00 PM 84.2 °F 89.6 °F 71.6 °F 66% 29.80 in 6.2 mi SSW 6.9 mph - N/A   Partly Cloudy
11:30 PM 84.2 °F 89.6 °F 71.6 °F 66% 29.80 in 6.2 mi South 6.9 mph - N/A   Partly Cloudy